Stations météo

réclame
Mon MeteoGroup
Lakenheath/RAF, Grande-Bretagne (3583): Température de l'air & dewpoint: 19.08.2019 06:00:00 - 25.08.2019 06:00:00 (BST)Lakenheath/RAF, Grande-Bretagne (3583): Vitesse du vent: 19.08.2019 06:00:00 - 25.08.2019 06:00:00 (BST)Lakenheath/RAF, Grande-Bretagne (3583): Direction du vent: 19.08.2019 06:00:00 - 25.08.2019 06:00:00 (BST)Lakenheath/RAF, Grande-Bretagne (3583): reduced air pressure: 19.08.2019 06:00:00 - 25.08.2019 06:00:00 (BST)Lakenheath/RAF, Grande-Bretagne (3583): visibility: 19.08.2019 06:00:00 - 25.08.2019 06:00:00 (BST)Lakenheath/RAF, Grande-Bretagne (3583): Quantités de précipitations: 19.08.2019 06:00:00 - 25.08.2019 06:00:00 (BST)
Date & Time tt [°C] td [°C] ff [km/h] ff [knt] dd ppp [hPa] vv [km] rr [mm]
25.08.2019 06:00:00 12,3 11,4 5 3 E 1017,5 4,4 -
25.08.2019 05:00:00 12,9 11,5 0 0 N 1017,2 10 -
25.08.2019 04:00:00 13,6 12,0 0 0 N 1017,2 10 -
25.08.2019 03:00:00 14,4 12,8 0 0 N 1017,5 9 -
25.08.2019 02:00:00 15,6 13,4 0 0 N 1017,9 10 -
25.08.2019 01:00:00 18,0 14,5 11 6 SE 1017,9 10 -
25.08.2019 00:00:00 18,1 14,0 15 8 SE 1017,9 10 -
24.08.2019 23:00:00 18,8 13,6 13 7 SE 1017,9 10 -
24.08.2019 22:00:00 20,6 14,2 13 7 SE 1017,5 10 -
24.08.2019 21:00:00 22,0 13,9 13 7 ESE 1017,5 10 -
24.08.2019 20:00:00 23,7 13,8 13 7 ESE 1017,2 10 -
24.08.2019 19:00:00 25,8 14,3 11 6 SE 1017,2 10 -
24.08.2019 18:00:00 27,6 12,0 11 6 SSE 1017,2 10 -
24.08.2019 17:00:00 28,3 13,8 16 9 SSE 1017,2 10 -
24.08.2019 16:00:00 28,2 14,0 11 6 SE 1017,5 10 -
24.08.2019 15:00:00 29,1 14,1 15 8 SSE 1017,9 10 -
24.08.2019 14:00:00 28,7 14,5 15 8 SE 1018,6 10 -
24.08.2019 13:00:00 27,9 13,0 16 9 SE 1018,9 10 -
24.08.2019 12:00:00 26,0 13,8 9 5 ESE 1019,6 10 -
24.08.2019 11:00:00 25,7 15,7 11 6 SE 1020,2 10 -
24.08.2019 10:00:00 22,9 16,4 8 4 ESE 1020,3 10 -
24.08.2019 09:00:00 19,9 15,5 9 5 SE 1020,6 10 -
24.08.2019 08:00:00 16,2 14,0 0 0 N 1020,6 10 -
24.08.2019 07:00:00 12,4 11,1 0 0 N 1020,6 10 -
24.08.2019 06:00:00 11,3 10,7 0 0 N 1020,6 10 -
24.08.2019 05:00:00 12,1 11,3 0 0 N 1020,9 10 -
24.08.2019 04:00:00 14,6 12,5 5 3 SE 1020,9 10 -
24.08.2019 03:00:00 14,6 12,6 0 0 N 1021,3 10 -
24.08.2019 02:00:00 15,2 12,9 8 4 SE - 10 -
24.08.2019 01:00:00 15,5 13,2 11 6 SE - 10 -
24.08.2019 00:00:00 16,3 13,2 9 5 SE - 10 -
23.08.2019 23:00:00 17,5 13,8 11 6 SE - 10 -
23.08.2019 22:00:00 18,6 14,3 15 8 SE - 10 -
23.08.2019 21:00:00 20,2 14,3 9 5 SE - 10 -
23.08.2019 20:00:00 22,5 14,6 8 4 SE - 10 -
23.08.2019 19:00:00 24,1 13,9 15 8 SSE - 10 -
23.08.2019 18:00:00 - - - - - - - -
23.08.2019 17:00:00 - - - - - - - -
23.08.2019 16:00:00 27,2 14,6 13 7 S - 10 -
23.08.2019 15:00:00 26,5 15,2 9 5 SSE 1023,0 10 -
23.08.2019 14:00:00 25,3 16,4 9 5 WSW 1023,6 10 -
23.08.2019 13:00:00 24,8 15,7 13 7 SW 1024,0 10 -
23.08.2019 12:00:00 23,3 15,8 11 6 SW 1024,3 10 -
23.08.2019 11:00:00 22,0 15,8 13 7 SW 1024,7 10 -
23.08.2019 10:00:00 20,0 16,0 0 0 N 1025,0 10 -
23.08.2019 09:00:00 18,3 15,2 8 4 WSW 1025,0 10 -
23.08.2019 08:00:00 16,7 14,3 11 6 SW 1025,0 10 -
23.08.2019 07:00:00 14,6 13,5 5 3 S 1024,7 10 -
23.08.2019 06:00:00 13,9 12,4 5 3 S 1024,7 10 -
23.08.2019 05:00:00 14,0 12,7 0 0 N 1024,3 10 -
23.08.2019 04:00:00 14,6 13,1 0 0 N 1024,3 10 -
23.08.2019 03:00:00 16,0 13,3 9 5 SW 1024,3 10 -
23.08.2019 02:00:00 16,3 13,6 15 8 SW 1024,3 10 -
23.08.2019 01:00:00 16,2 13,5 9 5 SSW 1024,3 10 -
23.08.2019 00:00:00 16,2 13,1 9 5 SW 1024,3 10 -
22.08.2019 23:00:00 16,8 12,9 11 6 W 1024,0 10 -
22.08.2019 22:00:00 18,2 13,3 9 5 SSW 1024,0 10 -
22.08.2019 21:00:00 19,8 13,9 13 7 SW 1023,6 10 -
22.08.2019 20:00:00 20,5 14,1 13 7 W 1023,3 10 -
22.08.2019 19:00:00 21,7 13,6 16 9 W 1023,0 10 -
22.08.2019 18:00:00 22,2 13,3 29 16 WSW 1022,6 10 -
22.08.2019 17:00:00 23,8 13,9 21 11 WSW 1022,3 10 -
22.08.2019 16:00:00 24,0 13,8 24 13 SW 1022,3 10 0,0
22.08.2019 15:00:00 23,0 14,0 28 15 WSW 1022,6 10 -
22.08.2019 14:00:00 22,8 14,1 24 13 WSW 1022,6 10 -
22.08.2019 13:00:00 22,9 13,9 21 11 W 1023,0 10 -
22.08.2019 12:00:00 21,8 14,2 22 12 WSW 1023,3 10 -
22.08.2019 11:00:00 19,9 13,6 21 11 WSW 1023,3 10 -
22.08.2019 10:00:00 18,7 13,5 26 14 WSW 1023,7 10 -
22.08.2019 09:00:00 17,3 13,0 24 13 SW 1023,7 10 -
22.08.2019 08:00:00 - - - - - - - -
22.08.2019 07:00:00 12,4 11,3 9 5 S 1023,3 10 -
22.08.2019 06:00:00 12,1 10,8 11 6 S 1023,3 10 -
22.08.2019 05:00:00 12,1 10,3 8 4 S 1023,0 10 -
22.08.2019 04:00:00 - - - - - - - -
22.08.2019 03:00:00 - - - - - - - -
22.08.2019 02:00:00 - - - - - - - -
22.08.2019 01:00:00 - - - - - - - -
22.08.2019 00:00:00 - - - - - - - -
21.08.2019 23:00:00 - - - - - - - -
21.08.2019 22:00:00 - - - - - - - -
21.08.2019 21:00:00 - - - - - - - -
21.08.2019 20:00:00 - - - - - - - -
21.08.2019 19:00:00 - - - - - - - -
21.08.2019 18:00:00 - - - - - - - -
21.08.2019 17:00:00 - - - - - - - -
21.08.2019 16:00:00 - - - - - - - -
21.08.2019 15:00:00 - - - - - - - -
21.08.2019 14:00:00 - - - - - - - -
21.08.2019 13:00:00 - - - - - - - -
21.08.2019 12:00:00 - - - - - - - -
21.08.2019 11:00:00 - - - - - - - -
21.08.2019 10:00:00 - - - - - - - -
21.08.2019 09:00:00 - - - - - - - -
21.08.2019 08:00:00 - - - - - - - -
21.08.2019 07:00:00 - - - - - - - -
21.08.2019 06:00:00 12,0 10,1 11 6 SSW 1026,0 10 -
21.08.2019 05:00:00 12,3 9,8 9 5 SW 1026,0 10 -
21.08.2019 04:00:00 13,7 10,1 11 6 SW 1025,7 10 -
21.08.2019 03:00:00 13,4 9,1 8 4 SSW 1025,7 10 -
21.08.2019 02:00:00 14,1 8,9 9 5 SSW 1025,3 10 -
21.08.2019 01:00:00 13,5 7,7 8 4 SSW 1025,7 10 -
21.08.2019 00:00:00 12,9 6,5 8 4 S 1025,4 10 -
20.08.2019 23:00:00 10,8 6,5 5 3 SSE 1025,4 10 -
20.08.2019 22:00:00 11,9 6,8 0 0 N 1025,0 10 -
20.08.2019 21:00:00 13,7 8,1 11 6 SW 1024,7 10 -
20.08.2019 20:00:00 16,3 7,5 8 4 W 1024,3 10 -
20.08.2019 19:00:00 19,1 6,9 21 11 WNW 1023,7 10 -
20.08.2019 18:00:00 19,4 8,4 16 9 WNW 1023,0 10 -
20.08.2019 17:00:00 20,0 7,7 21 11 WNW 1022,6 10 -
20.08.2019 16:00:00 19,2 9,4 16 9 W 1022,3 10 -
20.08.2019 15:00:00 19,4 9,3 22 12 W 1022,0 10 -
20.08.2019 14:00:00 19,1 8,7 21 11 W 1021,6 10 -
20.08.2019 13:00:00 18,1 10,5 18 10 W 1021,6 10 -
20.08.2019 12:00:00 17,6 11,2 16 9 W 1021,3 10 -
20.08.2019 11:00:00 17,0 10,6 13 7 WNW 1021,3 10 -
20.08.2019 10:00:00 16,0 12,0 13 7 W 1021,0 10 -
20.08.2019 09:00:00 14,3 11,6 15 8 W 1020,6 10 -
20.08.2019 08:00:00 12,6 11,0 16 9 WSW 1019,9 10 -
20.08.2019 07:00:00 11,2 9,9 13 7 SW 1019,3 10 -
20.08.2019 06:00:00 9,8 8,9 9 5 SW 1018,9 10 -
20.08.2019 05:00:00 10,5 9,1 11 6 SW 1018,2 10 -
20.08.2019 04:00:00 10,7 9,3 13 7 SW 1017,9 10 -
20.08.2019 03:00:00 11,2 9,8 15 8 SW 1017,6 10 -
20.08.2019 02:00:00 12,3 9,8 16 9 SW 1017,6 10 -
20.08.2019 01:00:00 12,9 9,9 15 8 SW 1017,6 10 -
20.08.2019 00:00:00 13,2 10,0 16 9 SW 1017,2 10 -
19.08.2019 23:00:00 13,8 10,4 16 9 SW 1016,5 10 -
19.08.2019 22:00:00 14,3 10,5 11 6 SSW 1016,2 10 -
19.08.2019 21:00:00 14,7 10,7 8 4 S 1015,5 10 -
19.08.2019 20:00:00 14,9 11,3 8 4 WSW 1014,9 10 0,0
19.08.2019 19:00:00 17,4 12,1 21 11 NW 1014,9 10 0,0
19.08.2019 18:00:00 19,7 11,5 22 12 W 1013,8 10 -
19.08.2019 17:00:00 18,8 13,0 15 8 WSW 1013,5 10 0,0
19.08.2019 16:00:00 16,4 11,9 18 10 W 1013,8 10 0,0
19.08.2019 15:00:00 17,2 14,8 11 6 S 1013,2 10 0,0
19.08.2019 14:00:00 16,5 14,3 8 4 SE 1012,8 10 0,0
19.08.2019 13:00:00 15,5 12,8 11 6 WNW 1012,5 9 0,0
19.08.2019 12:00:00 19,1 12,6 26 14 WSW 1011,8 10 0,0
19.08.2019 11:00:00 18,3 12,5 28 15 WSW 1011,8 10 -
19.08.2019 10:00:00 17,2 12,3 24 13 WSW 1011,1 10 -
19.08.2019 09:00:00 16,6 12,3 22 12 WSW 1010,8 10 -
19.08.2019 08:00:00 14,0 11,2 21 11 SW 1010,1 10 -
19.08.2019 07:00:00 12,9 10,8 21 11 SW 1010,1 10 -
19.08.2019 06:00:00 12,5 10,2 21 11 SW 1009,4 10 -

tt = Température de l'air
td = dewpoint
ff = Vitesse du vent
dd = Direction du vent
ppp = reduced air pressure
vv = visibility
rr = Quantités de précipitations

stations d'obs. à proximité